WGS 10 (USA 291)

Last updated on Tue Sep 22 2026 00:03:14 GMT+0000 (Coordinated Universal Time)

1 44071U 19014A 26264.60960123 .00000043 00000+0 00000+0 0 9993 2 44071 0.0082 143.7926 0000336 300.3383 196.1319 1.00272773 27583
UTC large
Height (km)
Speed (km/s)
/
Latitude / Longitude
Inclination (degrees)
Orbital Period (minutes)
Azimuth
Elevation
Range (km)
Doppler Factor

Next 0 passes for location: London (51.5072 / 0.1276)

No passes found over London.
WGS 10 (USA 291)